CW4541 Weather Reports


time (UTC)temp
F
wind
direction
speed
knots
gust
knots
rain 1hr
in
rain 24hr
in
rain mn
in
humidity
%
barometer
mb
20260509090604 44 0 0.0 0.0 0.00 0.00 0.00 29 1019.7
20260509080604 49 0 0.0 0.0 0.00 0.00 0.00 23 1019.8
20260509080110 49 0 0.0 0.0 0.00 0.00 0.00 22 1019.9
20260509070605 52 0 0.9 1.7 0.00 0.00 0.00 18 1020.7
20260509070109 52 0 0.9 1.7 0.00 0.00 0.00 18 1020.7
20260509060604 54 0 0.9 4.3 0.00 0.00 0.00 16 1020.8
20260509060109 54 0 0.9 4.3 0.00 0.00 0.00 16 1020.8
20260509050606 54 0 0.0 0.0 0.00 0.00 0.00 17 1021.0
20260509050111 54 0 0.0 0.0 0.00 0.00 0.00 17 1021.0
20260509040606 55 0 0.0 0.0 0.00 0.00 0.00 16 1020.5
20260509040111 55 0 0.0 0.0 0.00 0.00 0.00 16 1020.5
20260509030112 60 0 0.0 0.0 0.00 0.00 0.00 12 1019.7
20260509020609 66 0 0.0 2.6 0.00 0.00 0.00 8 1019.1
20260509020111 67 0 0.0 2.6 0.00 0.00 0.00 8 1019.0
20260509010605 67 0 2.6 10.4 0.00 0.00 0.00 8 1019.0
20260509010111 67 0 2.6 10.4 0.00 0.00 0.00 8 1019.0
20260509000605 69 0 4.3 10.4 0.00 0.00 0.00 7 1019.3
20260509000112 69 0 4.3 10.4 0.00 0.00 0.00 7 1019.3
20260508230606 72 0 7.0 12.2 0.00 0.00 0.00 5 1019.8
20260508220605 72 0 7.8 18.2 0.00 0.00 0.00 3 1020.3
20260508220110 72 0 5.2 18.2 0.00 0.00 0.00 6 1020.3
20260508210606 71 0 6.1 13.9 0.00 0.00 0.00 5 1020.9
20260508210111 71 0 7.8 13.9 0.00 0.00 0.00 6 1020.9
20260508200612 71 0 4.3 14.8 0.00 0.00 0.00 6 1021.6
20260508200111 70 0 4.3 14.8 0.00 0.00 0.00 6 1021.7
20260508190605 69 0 6.1 14.8 0.00 0.00 0.00 6 1022.0
20260508180606 69 0 5.2 13.9 0.00 0.00 0.00 8 1022.5
20260508170606 66 0 4.3 10.4 0.00 0.00 0.00 9 1023.1
20260508160111 65 0 4.3 7.0 0.00 0.00 0.00 12 1023.2
20260508150605 62 0 3.5 6.1 0.00 0.00 0.00 14 1023.6
20260508150110 62 0 2.6 6.1 0.00 0.00 0.00 14 1023.7
20260508140606 52 0 0.0 0.9 0.00 0.00 0.00 27 1024.2
20260508140113 51 0 0.0 0.0 0.00 0.00 0.00 28 1024.2